User: anonymous   Login
Location: The Top Of The Sky Mini Observatory
(41.4300°N, 81.2300°W)
Time: 22:18:26
(UTC-04:00)
Language:

Iridium 86 - Orbit

View from above orbital plane
View from above orbital plane
View from above satellite
View from above satellite

Ground track
Ground track

The orbit data is extracted from the following two-line orbital elements,

1 25528U 98066B   16243.24823049  .00000124  00000-0  37227-4 0  9991
2 25528  86.3943 111.4738 0001995  86.8962 273.2462 14.34216773937660
Epoch (UTC): 30 August 2016 05:57:27
Eccentricity: 0.0001995
inclination: 86.3943°
perigee height: 776 km
apogee height: 779 km
right ascension of ascending node: 111.4738°
argument of perigee: 86.8962°
revolutions per day: 14.34216773
mean anomaly at epoch: 273.2462°
orbit number at epoch: 93766

The dashed part of the orbit path shows where the satellite is in the earth's shadow,  

DLR